Showing default

UMBRA-05, 55036

Orbit data source: Space-Track

UMBRA-05, 55036 is a payload satellite owned by Umbra Labs (US) in SSO that was launched on Tue, 03 Jan 2023 UTC via an FALCON 9 launch vehicle from the Air Force Eastern Test Range (AFETR). Payloads include a variety of satellites, spacecraft, and rockets equipped with specific instruments for various scientific and technological missions. These include communications satellites like Starlink; space stations such as the ISS; scientific satellites like the Hubble; Earth observation satellites from companies like Planet Labs, Umbra, and HawkEye 360; GPS; miniature CubeSats for education and research; and military/defense satellites.

Loading next visibility...
UMBRA-05 details
Identifier
55036, 2023-001AD
Orbit
SSO
Last TLE update2 days ago
Origin
Flag of USUmbra Labs (US)
ManufacturerUmbra Labs
MissionOperational Commercial Radar Imaging
Bus & MotorUMBRA, Unknown motor
Mass65 kg wet, 60 kg dry
Launch date (UTC)
2023-01-03 (2 years ago)
Launch vehicle
FALCON 9
Launch site
Air Force Eastern Test Range (AFETR)
Object type
Payload
Rocket body
Debris
Shape & HBRBox + 2 Pan + 1 Dish, 3.8 m
Radar Cross Section0.929 m², Large (>1 m²)

Expand to show TLE details & history

TLE from 2 days ago
0 UMBRA-05
1 55036U 23001AD  25021.87441059  .00050628  00000-0  20833-2 0  9992
2 55036  97.3966  79.8507 0005560  24.3846 335.7653 15.23947314113589
Epoch: 2025-01-21T20:59Z
Definitive object data (Epoch: 2025-01-21T20:59:09.074Z)
Latitude-0.00009°
Longitude3.58853°
Altitude493.56 km
Speed7.62 km/s
True Right ascension05h 19m 24s
True Declination0° 00' 00"
Sunlit
Object was in full shadow at TLE epoch
Visualization TLE readout
Latitude7.37124°
Longitude-173.61001°
Altitude499.296 km
Speed7.613 km/s
Apparent Right ascension14h 50m 43s
Apparent Declination-46° 26' 26"
Sunlit
Object is in daylight
Visualization observer readout
Local Sidereal Time19:04:29
Azimuth219.286° SW
Elevation-13.22°
Doppler factor1
Orbital elements
Apogee altitude494.728 km
Perigee altitude487.089 km
Semi-major axis6,869.045 km
Eccentricity0.000556
Inclination97.3966°
RAAN79.8507°
Arg. of periapsis24.3846°
True anomaly335.73913°
Mean anomaly335.7653°
Eccentric anomaly335.75222°
Mean motion3.8124 °/min
BSTAR0.0020833
Orbital period94.43 mins
Loading maneuver chart data...
Loading historical data...
Loading historical data...
Loading historical data...
Loading historical data...
Loading historical data...
Loading historical data...
Loading historical data...

UMBRA-05 Visibility forecast

Observer location: undefined°, undefined

Span
Click to sort rows by Start time (UTC) header in descending order
Start Az.
Max El. time (UTC)
Max El. Az.
Max El.
End time (UTC)
End Az.
5 mins2025-01-24 04:16:42.027Z210.705° SW2025-01-24 04:18:42.027Z269.93° W29.27°2025-01-24 04:21:42.027Z328.526° NNW
4 mins2025-01-24 17:18:42.027Z331.895° NNW2025-01-24 17:20:42.027Z285.366° WNW22.789°2025-01-24 17:22:42.027Z242.627° WSW
|